Regional Weather Roundup
Issued by NWS Bismarck, ND

Home | Current Version | Previous Version | Text Only | Print | Product List | Glossary On
Versions: 1 2 3 4 5 6 7 8 9 10 11 12 13 14 15 16 17 18 19 20 21 22 23 24 25 26 27 28 29 30 31 32 33 34 35 36 37 38 39 40 41 42 43 44 45 46 47 48 49 50
000
ASUS43 KBIS 201810
RWRBIS

NWR BROADCAST TEXT
NATIONAL WEATHER SERVICE BISMARCK ND
100 PM CDT WED SEP 20 2017

NOTE: "FAIR" INDICATES FEW OR NO CLOUDS BELOW 12,000 FEET WITH NO
SIGNIFICANT WEATHER AND/OR OBSTRUCTIONS TO VISIBILITY.


CITY           SKY/WX    TMP DP  RH WIND       PRES   REMARKS
WILLISTON      SUNNY     61  38  42 SW16G23   29.61S
MINOT          SUNNY     64  41  42 SW15G25   29.61S
MINOT AFB      SUNNY     63  41  45 SW20G26   29.59S
BISMARCK       SUNNY     68  39  34 SW18G32   29.73S
DICKINSON      SUNNY     63  35  35 SW24      29.67F
GARRISON         N/A     62  41  46 SW23      29.65S
HETTINGER ARPT SUNNY     63  37  38 S9G18     29.75F
JAMESTOWN      SUNNY     66  40  38 SW17G29   29.73S
CARRINGTON     FAIR      66  43  42 SW23G32   29.72S
HAZEN          FAIR      64  34  32 SW25G31   29.69S
LINTON         FAIR      66  39  37 SW18G28   29.77F
MANDAN         FAIR      64  36  34 SW20G30   29.73S
RUGBY          FAIR      64  45  48 SW20      29.62S
STANLEY        FAIR      61  37  41 SW21G26   29.63F
TIOGA          FAIR      59  36  41 W18G24    29.61S
WATFORD CITY   FAIR      61  36  39 SW16G23   29.63S
$$

CITY           SKY/WX    TMP DP  RH WIND       PRES   REMARKS
GRAND FORKS    MOSUNNY   69  42  37 SW12G23   29.70R
GRAND FORKS AF SUNNY     70  41  35 SW12G21   29.70R
DEVILS LAKE    SUNNY     65  40  39 SW18G30   29.67S
FARGO          SUNNY     68  42  38 SW12      29.76R
CANDO          FAIR      66  39  37 SW21      29.65F
CAVALIER       FAIR      66  43  42 SW12G21   29.64S
GRAFTON        FAIR      66  45  45 SW15G23   29.69R
GWINNER        CLEAR     66  41  39 SW13G18   29.79R
LANGDON        FAIR      66  41  39 SW18G30   29.65R
ROLLA          FAIR      63  45  51 SW16G24   29.62S
WALHALLA       FAIR     N/A N/A N/A W16G23    29.63S
$$

CITY           SKY/WX    TMP DP  RH WIND       PRES   REMARKS
ABERDEEN       SUNNY     67  39  35 SW12      29.81R
MOBRIDGE       SUNNY     68  42  38 S13       29.76F
BUFFALO          N/A     65  29  25 SW24G31   29.67F
RAPID CITY     SUNNY     66  27  22 W15       29.81F
GLASGOW        MOSUNNY   61  28  28 W21G28    29.53F
SIDNEY         SUNNY     63  35  35 SW20G28   29.61F
WOLF POINT     SUNNY     62  32  32 SW15G24   29.56F
GLENDIVE         N/A     62  34  35 SW23G30   29.63F
MILES CITY     SUNNY     64  25  22 W18G30    29.64F
BAKER          SUNNY     62  29  28 W17G25    29.69F
$$

CITY           SKY/WX    TMP DP  RH WIND       PRES   REMARKS
BILLINGS       MOSUNNY   61  27  27 SW16G29   29.62F
GREAT FALLS    CLOUDY    51  29  42 SW21G32   29.54S
REGINA         MOSUNNY   59  37  44 SW18G29   29.46R
ESTEVAN        MOSUNNY   59  37  44 SW21G31   29.55S
$$




USA.gov is the U.S. government's official web portal to all federal, state and local government web resources and services.